GFSSE_sfc_rhum_111.txt.gz
RH
58 67 95 94 93 93 93 91 94 94 93 90 88 88 89 90 90 92 92 92 89 84 81 81 85 86 83 82 86 88 88 89 90 87 85 82 79 81 84 86 84 65 86
60 70 95 94 93 93 93 92 93 95 94 92 89 89 90 90 90 92 92 91 88 85 80 81 84 84 84 85 89 91 90 91 91 88 84 80 79 79 84 87 81 74 86
69 72 80 94 93 92 92 92 92 94 94 93 92 91 90 90 90 91 91 90 88 85 82 80 79 80 85 90 90 91 91 91 90 88 84 57 65 81 84 89 88 86 85
66 70 73 95 93 92 92 92 91 92 94 94 93 92 91 90 91 91 92 91 88 86 84 78 78 83 88 92 93 93 92 92 91 88 59 61 66 81 83 86 85 84 84
66 65 73 94 94 93 92 92 92 91 93 94 93 91 91 91 92 92 92 91 88 86 83 79 81 88 93 94 94 94 95 92 88 70 66 74 71 76 81 83 84 85 80
65 66 88 96 95 94 93 93 92 92 93 94 93 92 91 92 92 92 92 91 89 87 86 84 89 92 95 96 95 95 94 92 84 60 69 77 72 78 82 83 85 86 87
70 72 84 93 96 94 94 93 93 93 94 94 94 93 92 92 93 93 93 92 90 87 82 89 94 94 95 96 95 95 95 92 62 63 76 75 70 81 82 81 84 86 88
75 77 83 91 94 96 95 96 94 93 94 95 95 95 94 94 94 94 94 93 91 89 84 89 94 94 95 95 95 95 95 90 68 64 68 74 81 81 78 79 84 88 88
83 81 86 86 88 98 97 97 96 94 94 95 96 96 96 97 96 95 94 92 92 91 92 95 94 94 94 94 95 95 95 92 63 61 62 64 85 80 78 80 84 84 84
88 83 82 86 86 86 86 98 96 95 95 96 96 97 98 98 96 95 95 93 94 93 94 94 94 94 93 94 95 95 95 94 67 65 68 63 85 80 79 81 81 83 83
90 87 81 82 86 86 83 85 95 96 96 96 94 97 95 79 81 84 88 94 95 95 94 94 94 94 93 94 94 95 95 61 70 66 67 89 84 79 78 79 84 82 80
84 90 84 84 86 86 78 85 84 83 78 77 77 79 80 82 82 77 87 96 96 96 94 94 93 94 89 68 72 90 67 71 70 71 61 92 84 79 80 81 82 81 80
66 74 87 87 87 87 83 82 80 80 85 86 85 84 83 84 82 86 79 79 76 93 77 83 84 76 73 70 72 77 74 73 68 67 75 92 86 80 81 80 79 78 78
68 65 77 83 88 90 84 82 78 76 80 90 88 91 88 87 88 88 77 83 78 82 81 83 84 82 78 74 72 73 76 74 74 79 89 94 91 83 81 80 78 76 77
61 67 74 79 82 84 90 84 80 80 80 88 87 88 86 86 86 85 83 77 75 76 78 84 83 82 79 77 75 75 73 75 76 73 75 98 98 89 82 80 77 77 76
29 50 72 75 78 78 85 90 84 84 82 87 82 82 86 84 85 84 84 82 79 78 81 79 80 81 78 78 78 75 72 72 72 74 77 79 99 98 91 83 78 76 74
23 24 55 79 78 80 82 87 84 82 83 87 79 82 84 82 84 85 87 84 82 87 85 83 82 81 79 80 78 76 73 74 71 71 74 84 78 98 99 96 83 80 75
20 24 29 51 77 83 84 84 82 87 82 81 76 76 81 81 76 87 91 92 90 91 87 84 80 82 80 79 79 81 76 74 72 76 74 86 84 95 98 100 92 84 80
16 24 29 37 64 80 81 81 84 85 84 79 74 74 77 78 84 86 89 93 95 93 93 88 85 80 81 82 79 76 78 84 85 78 89 92 88 94 97 96 97 91 84
20 26 30 32 43 71 77 84 86 88 82 76 76 74 76 80 82 85 90 94 94 96 95 95 92 86 81 80 81 80 84 91 78 89 91 92 93 96 94 97 93 78 88
36 34 28 31 42 53 69 83 86 89 84 81 80 79 79 81 85 88 88 94 94 94 95 95 94 94 94 91 92 94 92 89 90 92 92 93 95 96 96 97 93 65 64
72 72 70 60 37 36 52 65 67 74 81 81 86 86 83 85 84 89 88 92 93 94 96 95 95 97 94 94 92 89 96 86 88 87 89 91 91 96 95 96 96 85 59
68 70 69 68 69 63 38 54 69 76 83 94 94 92 90 86 83 90 88 90 92 91 94 94 94 94 96 97 88 84 94 92 90 88 94 94 94 97 94 94 95 88 68
67 67 67 68 68 65 64 46 69 68 72 75 79 82 90 90 86 86 88 88 92 91 93 93 92 92 92 96 96 90 75 70 82 93 91 96 94 97 96 96 93 88 75
68 71 72 70 69 67 71 60 68 71 66 64 75 83 88 91 87 84 89 90 92 92 93 94 95 94 91 90 91 94 87 90 85 86 84 96 98 96 94 95 94 93 76
69 75 76 76 72 71 75 69 72 74 69 69 76 87 88 92 93 93 89 91 91 92 93 93 93 94 95 91 89 85 87 88 94 92 89 90 87 95 96 97 96 94 78

GFSSE_sfc_rhum_114.txt.gz
RH
35 48 94 92 92 91 92 94 93 91 88 89 89 90 90 90 91 92 92 90 89 87 83 83 84 82 78 78 85 87 89 90 90 88 85 82 80 81 83 85 79 60 86
32 54 95 92 91 91 92 94 94 93 90 89 89 90 91 90 91 92 92 91 88 86 81 81 84 82 81 86 90 90 91 92 90 88 85 81 79 81 81 82 77 70 86
40 52 71 93 92 91 91 93 94 93 92 90 90 91 91 90 91 92 91 90 88 85 81 79 81 80 83 89 91 91 92 91 89 87 83 52 58 80 81 88 87 86 86
41 48 54 94 92 91 91 92 94 93 93 90 90 91 91 90 91 92 92 91 89 86 83 77 78 84 88 91 92 92 92 91 90 86 58 52 52 82 83 85 84 84 84
42 44 52 94 93 92 91 92 94 95 95 93 92 91 90 90 91 91 92 91 89 87 83 78 82 88 92 93 94 93 92 91 90 75 50 51 57 72 81 83 86 85 80
43 41 80 95 94 92 91 91 93 95 96 95 93 91 90 90 90 92 92 91 89 87 84 84 88 92 93 94 95 94 92 89 89 40 48 63 56 79 81 82 85 88 87
45 46 67 96 94 92 90 91 92 94 95 95 94 93 92 92 92 93 93 92 91 88 88 91 93 93 95 95 95 94 92 88 48 46 54 56 59 81 80 82 88 88 88
51 54 62 90 95 94 93 93 93 93 94 95 95 94 94 94 94 94 93 93 92 91 93 94 93 94 95 95 95 95 93 89 53 53 56 56 81 82 80 81 88 89 89
59 62 69 77 80 98 96 94 94 93 94 94 95 95 96 96 95 94 94 93 92 89 88 94 94 95 95 95 95 96 94 88 42 44 55 54 86 80 77 81 85 88 89
67 67 68 77 74 66 71 96 94 94 94 95 95 96 97 97 96 95 95 94 92 90 92 94 95 95 95 95 95 95 94 92 46 40 49 46 86 79 77 79 83 85 87
74 73 75 76 78 69 60 72 92 95 95 96 92 97 92 63 69 75 77 93 94 94 94 94 94 95 95 95 95 95 96 46 42 39 41 85 85 79 80 82 84 84 83
62 73 74 76 79 80 54 63 65 62 61 63 62 68 62 60 60 56 72 96 97 96 95 94 94 95 90 56 65 88 54 41 41 42 47 90 86 78 80 82 85 83 82
40 57 69 74 75 80 62 70 59 58 55 59 63 61 60 60 64 60 62 70 74 89 68 74 75 59 56 48 48 55 47 49 41 41 60 92 88 77 80 82 82 82 82
31 47 59 66 71 75 72 71 70 60 72 72 66 65 59 72 63 62 54 55 61 64 61 62 59 59 58 55 51 52 52 48 43 46 70 93 90 82 79 80 80 80 81
22 33 50 59 64 65 74 69 73 67 56 67 73 76 64 67 73 66 54 53 53 58 62 60 59 64 67 62 56 55 54 50 50 47 51 93 95 92 83 80 79 78 78
15 19 28 49 60 59 63 70 69 66 55 68 72 74 78 65 66 72 59 54 52 58 59 64 60 61 63 61 62 60 55 50 53 53 43 65 97 97 87 84 82 79 77
13 15 23 35 49 62 63 63 63 59 58 60 74 81 86 80 66 74 75 59 53 58 65 68 67 63 64 66 65 62 58 57 56 53 50 48 62 98 95 86 89 88 79
11 14 18 23 35 55 62 59 55 54 57 54 65 62 75 85 78 74 77 76 65 70 71 64 68 69 64 68 65 69 63 60 58 56 53 50 49 52 87 97 94 97 85
12 16 19 24 28 50 58 59 61 60 56 50 53 55 61 72 76 69 70 80 82 84 80 67 65 72 70 69 66 66 67 63 60 57 56 55 57 61 67 91 97 98 97
28 33 32 26 28 32 47 55 50 56 57 53 50 50 57 63 68 70 56 74 85 90 85 81 78 68 67 70 62 60 62 62 63 56 57 56 62 74 86 78 95 98 99
42 45 44 49 48 31 26 44 46 58 58 55 52 53 55 60 68 65 62 70 90 91 88 85 89 86 84 75 82 82 72 73 70 59 57 58 62 64 83 88 94 96 97
49 49 51 49 48 48 33 25 40 44 52 53 51 56 58 62 64 65 66 75 88 90 93 89 90 94 92 86 88 82 91 78 71 67 63 65 74 78 90 90 94 95 96
52 53 52 51 50 50 52 43 27 42 46 53 63 68 64 62 65 71 72 81 90 87 93 91 88 90 94 94 75 64 77 69 57 58 70 66 76 88 91 93 94 93 90
53 54 55 55 54 52 52 51 50 31 43 50 58 65 64 68 69 69 77 82 87 88 90 92 84 84 87 94 93 69 56 50 66 70 66 72 76 82 90 95 94 94 91
50 54 59 59 58 58 58 57 55 46 40 41 52 60 66 78 81 79 82 82 87 84 90 90 90 88 86 82 88 84 72 62 64 79 67 64 73 72 78 93 94 94 93
48 55 60 63 62 64 68 66 65 63 48 43 46 56 61 79 89 86 86 85 86 87 89 91 89 87 86 86 84 67 68 71 74 79 78 66 64 62 84 92 94 94 93

GFSSE_sfc_rhum_117.txt.gz
RH
22 51 92 91 91 92 93 93 93 92 90 90 91 91 92 92 92 93 92 91 89 87 82 81 82 81 77 74 81 85 88 90 90 88 86 82 80 81 80 83 78 59 85
25 49 93 92 92 92 93 94 93 91 90 90 91 92 92 92 93 93 92 91 90 86 81 82 82 78 78 84 89 90 91 91 90 89 85 80 80 79 77 79 75 72 86
30 49 67 92 92 92 93 93 92 90 90 90 92 92 92 92 93 93 92 91 89 86 80 80 80 79 82 90 90 92 91 90 90 88 85 57 58 79 79 86 87 86 86
32 44 52 93 92 92 94 94 92 91 90 91 91 92 92 92 93 93 93 91 89 86 80 80 79 82 88 91 92 92 91 90 88 86 62 59 52 81 81 84 85 84 85
34 38 50 92 92 92 93 94 94 93 92 92 92 92 91 91 92 92 93 92 90 87 81 77 82 88 91 92 92 92 91 89 88 75 54 61 64 74 81 83 84 86 82
34 35 82 94 93 91 92 94 95 95 94 93 92 91 91 91 91 92 92 91 90 88 84 83 88 91 92 93 93 92 91 89 91 50 50 62 62 80 81 81 82 88 88
37 39 63 95 94 91 91 93 95 96 95 94 93 92 91 91 92 93 92 92 91 89 87 90 92 92 93 94 93 92 91 90 57 44 49 56 65 82 77 83 88 88 88
41 42 61 90 94 92 92 93 95 96 96 95 94 93 93 93 94 93 92 92 92 91 92 94 92 93 94 94 94 93 92 91 58 43 55 65 83 81 76 82 84 89 90
50 49 66 70 77 97 95 94 95 95 96 96 95 95 95 95 94 93 93 93 93 93 94 93 93 94 94 94 94 94 93 90 60 41 54 62 86 81 78 83 85 89 90
55 56 62 68 65 65 66 95 94 95 95 96 95 96 97 96 94 94 94 94 92 91 92 93 94 94 94 94 95 95 94 91 57 47 41 48 86 80 78 81 83 88 89
60 67 73 71 68 59 56 68 91 94 94 96 92 97 93 66 71 76 78 92 94 92 92 94 94 95 95 95 95 95 94 50 43 43 37 86 84 79 80 84 87 88 88
34 65 80 83 77 62 46 62 62 59 59 62 62 71 66 59 61 52 67 94 95 95 95 95 95 95 94 61 70 90 60 49 50 48 66 88 84 78 78 83 86 86 86
21 44 69 83 83 78 59 50 52 51 54 57 60 59 61 54 56 54 56 64 70 90 76 80 80 68 63 50 48 55 52 53 55 52 77 89 85 78 76 80 85 82 84
17 34 54 67 76 78 64 50 49 44 50 51 54 65 60 55 62 57 52 58 66 60 65 65 62 62 58 54 66 57 52 62 56 57 83 92 88 82 76 80 82 81 82
15 22 41 57 67 73 76 63 67 60 49 50 51 58 54 51 60 57 50 52 59 51 61 62 65 60 61 54 54 58 60 56 60 48 64 93 90 88 80 78 80 80 82
14 15 20 29 56 66 70 70 70 65 52 58 54 58 63 54 61 52 52 44 46 45 57 57 61 71 67 61 63 57 60 52 62 61 65 72 93 92 90 84 81 79 80
11 13 17 24 31 51 65 61 67 58 56 49 53 68 80 66 62 64 64 48 43 43 65 61 64 69 77 69 64 60 56 55 64 63 53 63 72 97 96 90 85 87 83
9 12 15 15 23 33 45 50 55 55 57 50 50 57 71 79 63 63 74 63 48 47 54 72 69 66 78 75 70 64 66 59 62 60 50 64 74 69 90 96 93 92 88
14 21 24 29 29 30 36 44 52 59 56 51 49 54 62 70 71 61 62 74 65 51 58 64 76 73 70 65 69 75 68 61 61 54 57 65 71 61 59 94 94 91 92
31 34 35 34 39 39 32 38 40 47 51 58 52 49 59 60 69 69 57 70 74 66 68 65 72 74 71 67 63 63 73 71 61 59 57 60 57 65 58 67 78 90 96
38 40 38 42 44 41 38 27 31 47 49 52 58 54 54 55 63 68 60 65 74 78 80 78 70 75 78 74 77 70 77 74 71 61 50 47 62 62 69 74 77 85 96
41 43 45 44 43 43 38 36 30 30 36 44 49 55 56 56 60 62 64 57 73 76 88 85 83 82 73 74 76 81 88 80 66 59 52 49 58 54 67 70 73 82 87
41 45 45 46 46 47 48 43 39 39 35 43 53 54 55 57 60 65 64 61 62 74 78 86 88 86 90 85 72 68 71 60 51 60 66 63 68 77 63 76 81 83 88
40 43 45 47 49 48 50 50 52 44 37 33 47 54 53 60 60 62 66 66 67 74 78 82 82 86 86 92 89 68 61 45 47 55 66 64 60 72 74 79 86 85 86
39 43 48 51 52 51 53 58 58 56 47 42 40 54 59 61 64 63 67 70 73 76 78 81 86 89 84 81 86 76 70 61 60 58 68 68 58 60 63 72 77 87 85
43 47 52 54 53 54 57 61 67 69 61 53 50 47 60 61 63 69 69 75 78 80 80 79 85 87 87 84 83 74 71 70 61 69 69 66 74 65 55 60 85 86 87

GFSSE_sfc_rhum_123.txt.gz
RH
73 87 93 92 93 94 92 91 93 93 92 91 91 92 91 92 92 91 92 92 91 88 83 82 86 83 80 83 86 88 88 88 88 89 87 83 78 78 82 88 85 79 86
67 82 94 93 93 94 94 92 92 93 92 92 92 92 91 92 92 92 92 92 90 88 84 84 84 81 80 87 90 90 91 91 89 88 86 80 80 77 79 86 86 84 86
70 78 85 94 94 94 94 93 92 92 92 92 93 92 92 92 92 92 92 92 91 88 84 84 83 79 85 89 90 90 90 90 90 89 86 88 86 82 83 89 88 88 87
66 79 86 93 94 94 94 94 93 92 92 92 93 92 92 92 92 92 91 91 91 90 86 84 81 84 92 89 90 90 90 90 88 88 84 81 75 84 82 86 87 87 86
65 68 82 93 94 94 95 95 94 94 94 94 93 92 92 93 92 92 92 91 91 88 85 82 84 91 92 91 91 90 90 89 90 86 77 84 87 82 82 85 88 88 88
64 63 92 94 93 94 95 95 95 95 95 95 94 93 93 93 93 92 92 92 91 88 86 87 91 91 91 91 92 91 92 91 91 91 88 81 87 82 80 86 88 89 90
82 84 86 94 94 94 95 95 95 95 95 95 95 94 94 94 94 92 92 93 92 90 88 90 91 91 91 91 92 92 94 95 84 80 88 90 87 82 78 85 90 90 91
81 86 88 92 94 94 96 96 96 95 95 94 95 94 94 95 95 93 93 93 93 91 93 93 93 91 92 92 92 92 96 93 81 76 84 94 86 82 81 85 86 89 91
85 86 94 95 92 94 96 98 97 96 95 95 95 95 95 96 96 94 93 93 94 94 95 93 92 92 92 93 92 94 96 94 91 93 85 95 86 83 80 83 86 91 92
75 94 94 96 97 98 98 98 98 97 97 96 96 96 97 97 96 94 94 94 94 95 96 93 92 93 93 93 93 95 96 94 91 91 93 85 86 81 78 83 88 91 92
75 92 95 94 93 95 96 93 97 97 97 97 96 97 99 97 96 94 95 95 96 96 96 94 93 94 94 94 95 94 94 96 83 94 92 90 83 80 80 88 92 92 92
74 90 94 93 92 89 72 94 98 95 98 97 98 95 98 97 97 90 93 95 96 97 96 95 94 95 97 99 99 95 98 91 80 89 94 90 85 81 80 89 91 91 91
36 90 93 93 92 88 81 94 93 97 99 99 98 99 97 91 94 91 92 93 98 97 98 98 98 99 98 97 98 98 96 91 87 84 83 91 86 83 81 86 89 89 91
21 47 93 92 93 93 96 94 85 84 90 95 95 96 96 93 96 90 91 95 98 98 98 99 99 99 97 93 91 94 91 86 86 95 94 91 88 83 81 80 84 86 85
22 30 91 92 94 94 91 97 97 88 90 82 86 89 90 93 92 89 90 90 94 97 96 98 98 96 95 92 91 92 84 79 86 93 98 92 92 87 83 78 80 82 81
42 47 48 56 73 93 94 95 98 97 95 88 80 79 85 82 89 88 84 87 89 90 91 95 95 95 91 91 90 87 88 78 87 89 94 94 93 91 88 83 81 80 79
45 47 50 50 55 62 75 82 94 94 90 98 93 83 78 81 77 85 82 90 84 81 87 89 93 91 93 88 89 86 80 77 81 91 92 93 95 94 93 90 86 84 84
44 46 48 48 54 56 54 71 83 86 95 91 86 94 80 78 79 86 80 81 84 80 83 87 88 93 89 91 91 89 85 87 83 81 88 93 95 89 94 93 92 89 88
44 45 47 50 53 55 54 56 57 73 87 90 91 88 83 87 79 91 82 81 88 85 85 82 88 87 90 93 90 86 94 92 88 79 81 91 94 93 94 95 94 94 92
46 45 45 46 52 53 55 56 56 58 68 77 84 89 82 74 77 79 95 94 88 96 92 81 84 92 89 88 80 85 95 94 93 92 85 76 85 89 94 96 97 97 92
46 47 47 49 52 54 57 61 62 65 61 68 75 68 84 78 77 88 84 96 92 84 89 89 86 93 97 94 96 97 97 95 94 92 89 86 81 79 91 91 97 97 96
49 52 52 52 53 54 54 56 59 60 60 60 59 68 69 73 82 82 88 80 90 85 87 92 85 90 91 93 93 95 99 97 96 91 94 87 79 86 91 90 96 96 95
54 55 55 55 56 56 54 55 57 59 62 67 67 66 66 66 75 82 77 79 82 89 83 81 88 85 92 95 87 94 98 97 98 98 92 86 86 87 83 90 92 92 94
57 56 56 57 58 53 57 60 64 67 72 68 70 68 68 72 71 73 76 79 77 84 88 82 86 87 88 90 92 76 88 88 93 98 96 86 88 92 91 92 95 94 93
56 59 60 60 59 58 59 62 66 69 66 65 67 70 71 70 73 71 79 76 86 89 88 88 80 95 88 82 84 85 86 95 92 95 98 98 96 91 86 90 91 94 95
62 63 64 64 64 62 64 64 68 70 68 68 68 74 74 76 76 73 74 83 78 86 87 86 89 87 91 92 86 82 83 80 87 96 96 96 93 96 88 89 96 95 95